This is the latest recevied weather packets stored in our database for station/object JS2WAD-13. If no packets are shown the sender has not sent any weather packets the latest 1 day(s).
| Time | Temp. | Humidity | Pressure | Rain* | Wind** | Luminosity | Snow |
|---|---|---|---|---|---|---|---|
| 1778026281 | 16.67° C | 88% | 912.6 hPa | 0 mm | 0.45 m/s, 39° | 158 W/m² | - |
| 1778025981 | 16.67° C | 87% | 912.7 hPa | 0 mm | 0.45 m/s, 39° | 83 W/m² | - |
| 1778025681 | 16.67° C | 88% | 912.7 hPa | 0 mm | 0.45 m/s, 39° | 49 W/m² | - |
| 1778025381 | 16.67° C | 87% | 912.7 hPa | 0 mm | 0 m/s | 35 W/m² | - |
| 1778025081 | 16.67° C | 86% | 912.7 hPa | 0 mm | 0.45 m/s, 40° | 35 W/m² | - |
| 1778024781 | 16.67° C | 86% | 912.7 hPa | 0 mm | 0.45 m/s, 39° | 35 W/m² | - |
| 1778024481 | 16.67° C | 86% | 912.8 hPa | 0 mm | 0 m/s | 42 W/m² | - |
| 1778024181 | 16.67° C | 86% | 912.7 hPa | 0 mm | 0.45 m/s, 40° | 60 W/m² | - |
| 1778023881 | 16.67° C | 87% | 912.8 hPa | 0 mm | 0.45 m/s, 39° | 91 W/m² | - |
| 1778023581 | 16.67° C | 86% | 912.8 hPa | 0 mm | 0.45 m/s, 39° | 76 W/m² | - |
| 1778023281 | 16.67° C | 87% | 912.7 hPa | 0 mm | 0 m/s | 100 W/m² | - |
| 1778022981 | 16.67° C | 87% | 912.8 hPa | 0 mm | 0 m/s | 76 W/m² | - |
| 1778022681 | 16.67° C | 85% | 912.9 hPa | 0 mm | 0 m/s | 35 W/m² | - |
| 1778022381 | 16.67° C | 84% | 912.9 hPa | 0 mm | 0 m/s | 28 W/m² | - |
| 1778022081 | 16.67° C | 85% | 913 hPa | 0 mm | 0.45 m/s, 40° | 25 W/m² | - |
| 1778021781 | 16.67° C | 85% | 913 hPa | 0 mm | 0.45 m/s, 41° | 25 W/m² | - |
| 1778021481 | 16.67° C | 85% | 913.1 hPa | 0 mm | 0 m/s | 32 W/m² | - |
| 1778021181 | 16.67° C | 85% | 912.9 hPa | 0 mm | 0 m/s | 33 W/m² | - |
| 1778020881 | 16.67° C | 85% | 913 hPa | 0 mm | 0 m/s | 33 W/m² | - |
| 1778020581 | 16.11° C | 84% | 912.9 hPa | 0 mm | 0 m/s | 44 W/m² | - |
| 1778020281 | 16.11° C | 83% | 913 hPa | 0 mm | 0 m/s | 44 W/m² | - |
| 1778019981 | 16.67° C | 83% | 913 hPa | 0 mm | 0.45 m/s, 39° | 25 W/m² | - |
| 1778019681 | 16.67° C | 80% | 913 hPa | 0 mm | 0.45 m/s, 40° | 19 W/m² | - |
| 1778019381 | 16.67° C | 81% | 913 hPa | 0 mm | 0 m/s | 21 W/m² | - |
| 1778019081 | 16.67° C | 80% | 913 hPa | 0 mm | 0 m/s | 19 W/m² | - |
* Rain latest hour (hover to see other rain measurements)
** Current wind speed in m/s (hover to see current wind gust speed)